Flag for U.S.A. Weather past 2 weeks in Kalispell, Montana, U.S.A.

Now
61 °F

Clear.


Feels Like: 61 °F
Forecast: 46 / 93 °F
Wind: No wind

Location: Kalispell - Glacier Park International

Current Time: Jul 30, 2015 at 11:17:23 PM

Latest Report: Jul 30, 2015 at 10:55 PM


Visibility: 10 mi

Pressure: 30.10 "Hg (27.06 "Hg at 902m altitude)

Humidity: 46%

Dew point: 40 °F

Location of KalispellLocation

Historic Weather in Kalispell — Graph

°F

Kalispell temperature yesterday

Maximum temperature yesterday: 85 °F (at 6:55 PM)
Minimum temperature yesterday: 40 °F (at 4:55 AM)
Average temperature yesterday: 64 °F

Past Weeks' High & Low Weather Summary

 TemperatureHumidityPressure
High90 °F (Jul 21, 3:55 PM)97% (Jul 18, 4:55 AM)30.24 "Hg (Jul 18, 4:55 AM)
Low40 °F (Jul 17, 4:55 AM)10% (Jul 22, 2:55 PM)29.66 "Hg (Jul 21, 7:55 PM)
Average65 °F48%29.94 "Hg
* Reported Jul 15 9:55 PM — Jul 30 9:55 PM, Kalispell, Weather by CustomWeather, © 2015

Note: Actual official high and low records may vary slightly from our data, if they occured in-between our weather recording intervals... More about our weather records

Advertising

Kalispell weather history for previous 24 hours

 ConditionsComfort  
Time TempWeatherWind HumidityBarometerVisibility
9:55 PM
Thu, Jul 30
66 °FSunny.3 mph40%30.08 "Hg10 mi
8:55 PM78 °FSunny.3 mph24%30.06 "Hg10 mi
7:55 PM87 °FSunny.7 mph16%30.06 "Hg10 mi
6:55 PM88 °FSunny.10 mph16%30.08 "Hg10 mi
5:55 PM89 °FSunny.14 mph15%30.09 "Hg10 mi
4:55 PM89 °FSunny.13 mph16%30.10 "Hg10 mi
3:55 PM88 °FSunny.14 mph16%30.12 "Hg10 mi
2:55 PM88 °FSunny.12 mph15%30.14 "Hg10 mi
1:55 PM86 °FSunny.13 mph17%30.16 "Hg10 mi
12:55 PM83 °FSunny.12 mph21%30.18 "Hg10 mi
11:55 AM80 °FSunny.6 mph24%30.20 "Hg10 mi
10:55 AM74 °FSunny.6 mph31%30.21 "Hg10 mi
9:55 AM71 °FSunny.7 mph32%30.22 "Hg10 mi
8:55 AM66 °FSunny.7 mph40%30.21 "Hg10 mi
7:55 AM57 °FSunny.No wind58%30.22 "Hg10 mi
6:55 AM43 °FClear.No wind82%30.23 "Hg10 mi
5:55 AM43 °FClear.3 mph76%30.22 "Hg10 mi
4:55 AM44 °FClear.No wind76%30.20 "Hg10 mi
3:55 AM46 °FClear.No wind73%30.19 "Hg10 mi
2:55 AM47 °FClear.5 mph69%30.18 "Hg10 mi
1:55 AM49 °FClear.No wind66%30.17 "Hg10 mi
12:55 AM52 °FClear.No wind57%30.15 "Hg10 mi
11:55 PM
Wed, Jul 29
56 °FClear.5 mph51%30.14 "Hg10 mi
Weather by CustomWeather, © 2015

See weather overviewHow to use our weather pages